Regional Weather Roundup
Issued by NWS

Home | Current Version | Previous Version | Graphics & Text | Print | Product List | Glossary On
Versions: 1 2 3 4 5 6 7 8 9 10 11 12 13 14 15 16 17 18 19 20 21 22 23 24 25 26 27 28 29 30 31 32 33 34 35 36 37 38 39 40 41 42 43 44 45 46 47 48 49 50
000
ASUS43 KLSX 181007
RWRMO

WEATHER SUMMARY FOR MISSOURI
NATIONAL WEATHER SERVICE SPRINGFIELD MO
500 AM CDT THU SEP 18 2014

NOTE: "FAIR" INDICATES FEW OR NO CLOUDS BELOW 12,000 FEET WITH NO
       SIGNIFICANT WEATHER AND/OR OBSTRUCTIONS TO VISIBILITY.
       CURRENT SKY AND/OR WEATHER CONDITIONS ARE NOT AVAILABLE FOR
       CHILLICOTHE AND FARMINGTON.

MOZ001>031-035>038-043-044-053-054-181100-
...NORTHERN AND WESTERN MISSOURI...

CITY           SKY/WX    TMP DP  RH WIND       PRES   REMARKS
KANSAS CTY INT FOG       61  61 100 E7        29.98F VSB 1/2
KANSAS C DTWN  CLOUDY    64  61  90 E7        29.97F FOG
LEE`S SUMMIT   CLOUDY    62  60  93 E8        29.98F FOG
ST JOSEPH      MOCLDY    61  59  93 E5        30.00R
CHILLICOTHE      N/A     59  58  96 E5        30.03R
KIRKSVILLE     FOG       54  54 100 CALM      30.03R VSB 1/4

$$
MOZ066>068-077>081-088>096-101>105-181100-
...SOUTHWEST MISSOURI...

CITY           SKY/WX    TMP DP  RH WIND       PRES   REMARKS
SPRINGFIELD    CLOUDY    64  62  93 S7        29.95F
JOPLIN         TSTM      63  62  97 S7        29.99R

$$
MOZ032>034-039>042-045>050-055>058-069>072-181100-
...CENTRAL MISSOURI...

CITY           SKY/WX    TMP DP  RH WIND       PRES   REMARKS
COLUMBIA       FOG       60  59  96 NE7         N/A  VSB 3/4
JEFFERSON CITY CLOUDY    61  60  97 E6        29.98S FOG
ROLLA          FOG       59  58  96 E7        29.97R VSB 1/4
SEDALIA        FOG       63  61  93 NE6       29.98S VSB 1/4
WHITEMAN AFB   CLOUDY    62  62  98 NE7       29.97R FOG
OSAGE BEACH    CLOUDY    63  61  94 E6        29.96S

$$
MOZ051-052-059>065-181100-
...EAST CENTRAL MISSOURI...

CITY           SKY/WX    TMP DP  RH WIND       PRES   REMARKS
ST LOUIS INTL  CLOUDY    62  56  80 CALM      30.01R
SPIRIT OF STL  CLOUDY    61  58  90 CALM      29.99R
ST CHARLES     CLOUDY    60  57  89 CALM      30.01R

$$
MOZ072>076-082>087-097>100-106>115-181100-
...SOUTH CENTRAL AND SOUTHEAST MISSOURI...

CITY           SKY/WX    TMP DP  RH WIND       PRES   REMARKS
CAPE GIRARDEAU CLOUDY    59  58  96 CALM      29.98R FOG
FARMINGTON     CLOUDY    59  57  94 CALM      30.00S
POPLAR BLUFF   CLOUDY    60  57  89 NE5       29.96R FOG
WEST PLAINS    CLOUDY    61  59  93 CALM      29.98R FOG

$$


USA.gov is the U.S. government's official web portal to all federal, state and local government web resources and services.